Weather History for Kansas City International, MO

Change the Weather History Date:

Wednesday, March 5, 2014

  Actual Average Record
Temperature  
Mean Temperature 34 °F 40 °F  
Max Temperature 40 °F 51 °F 84 °F (1956)
Min Temperature 27 °F 30 °F 0 °F (1960)
Degree Days  
Heating Degree Days 31 25  
Month to date heating degree days 238 128  
Since 1 July heating degree days 4804 4173  
Cooling Degree Days 0 0  
Month to date cooling degree days 0 0  
Year to date cooling degree days 0 0  
Moisture  
Dew Point 24 °F    
Average Humidity 76    
Maximum Humidity 92    
Minimum Humidity 59    
Precipitation  
Precipitation 0.01 in 0.06 in 1.69 in (1894)
Month to date precipitation 0.29 0.32  
Year to date precipitation 2.04 2.85  
Snow  
Snow 0.00 in 0.00 in 4.50 in (1947)
Month to date snowfall 3.1 0.4  
Since 1 July snowfall 25.7 16.6  
Snow Depth 1.00 in    
Sea Level Pressure  
Sea Level Pressure 30.21 in    
Wind  
Wind Speed 8 mph (NNE)    
Max Wind Speed 16 mph    
Max Gust Speed 19 mph    
Visibility 6 miles    
Events Snow    
T = Trace of Precipitation, MM = Missing Value Source: NWS Daily Summary

Daily Weather History Graph

Daily Weather History Graph

Search for Another Location

Airport:

Trip Planner

Search our weather history database for the weather conditions in past years. The results will help you decide how hot, cold, wet, or windy it might be!

Date:

Astronomy

Mar. 05, 2014 Rise Set
Actual Time 6:45 AM CST 6:15 PM CST
Civil Twilight 6:18 AM CST 6:42 PM CST
Nautical Twilight 5:47 AM CST 7:13 PM CST
Astronomical Twilight 5:16 AM CST 7:44 PM CST
Moon 9:13 AM CST (3/5) 11:23 PM CST (3/5)
Length of Visible Light 12h 23m
Length of Day
11h 29m
Waxing Crescent, 23% of the Moon is Illuminated
Mar 5
Waxing Crescent
Mar 8
First Quarter
Mar 16
Full
Mar 23
Last Quarter
Mar 30
New

Hourly Weather History & Observations

Time (CST) Temp. Windchill Dew Point Humidity Pressure Visibility Wind Dir Wind Speed Gust Speed Precip Events Conditions
12:53 AM 32.0 °F - 21.0 °F 64% 30.09 in 10.0 mi Calm Calm - N/A   Mostly Cloudy
1:53 AM 30.9 °F 27.5 °F 21.9 °F 69% 30.10 in 10.0 mi South 3.5 mph - N/A   Overcast
2:53 AM 30.9 °F 27.5 °F 21.9 °F 69% 30.10 in 10.0 mi South 3.5 mph - N/A   Overcast
3:53 AM 28.9 °F 23.9 °F 23.0 °F 78% 30.09 in 9.0 mi South 4.6 mph - N/A   Overcast
4:53 AM 28.9 °F 22.8 °F 23.0 °F 78% 30.10 in 8.0 mi South 5.8 mph - N/A   Overcast
5:53 AM 28.9 °F 22.8 °F 21.9 °F 75% 30.11 in 9.0 mi South 5.8 mph - N/A   Scattered Clouds
6:53 AM 30.0 °F - 21.9 °F 72% 30.13 in 8.0 mi Calm Calm - N/A   Overcast
7:53 AM 30.0 °F 26.5 °F 24.1 °F 79% 30.16 in 6.0 mi NNE 3.5 mph - N/A   Haze
8:53 AM 32.0 °F 27.5 °F 24.1 °F 73% 30.17 in 6.0 mi NNE 4.6 mph - N/A   Haze
9:53 AM 35.1 °F 29.3 °F 25.0 °F 67% 30.19 in 7.0 mi North 6.9 mph - N/A   Overcast
10:53 AM 37.9 °F 33.5 °F 26.1 °F 62% 30.21 in 8.0 mi NNE 5.8 mph - N/A   Overcast
11:53 AM 39.0 °F 32.8 °F 26.1 °F 60% 30.21 in 9.0 mi NNE 9.2 mph - N/A   Overcast
12:53 PM 39.0 °F 31.0 °F 27.0 °F 62% 30.20 in 9.0 mi NNE 13.8 mph - N/A   Overcast
1:53 PM 37.9 °F 29.2 °F 26.1 °F 62% 30.20 in 9.0 mi NNE 15.0 mph - N/A   Mostly Cloudy
2:53 PM 36.0 °F 27.5 °F 24.1 °F 62% 30.20 in 9.0 mi NNE 12.7 mph - N/A   Overcast
3:53 PM 33.1 °F 23.0 °F 24.1 °F 70% 30.23 in 3.0 mi NNE 15.0 mph - 0.00 in Snow Light Snow
4:53 PM 30.9 °F 21.7 °F 26.1 °F 82% 30.25 in 3.0 mi North 11.5 mph - 0.00 in Snow Light Snow
5:02 PM 30.0 °F 20.0 °F 26.1 °F 85% 30.22 in 2.0 mi North 12.7 mph - 0.00 in Snow Light Snow
5:43 PM 30.0 °F 21.1 °F 26.1 °F 85% 30.23 in 2.0 mi North 10.4 mph - 0.01 in Snow Light Snow
5:53 PM 28.9 °F 19.8 °F 26.1 °F 89% 30.26 in 2.0 mi North 10.4 mph - 0.01 in Snow Light Snow
5:55 PM 28.9 °F 19.8 °F 26.1 °F 89% 30.23 in 1.8 mi North 10.4 mph - 0.00 in Snow Light Snow
6:07 PM 28.9 °F 19.8 °F 25.0 °F 85% 30.23 in 1.8 mi NNE 10.4 mph - 0.00 in Snow Light Snow
6:19 PM 28.9 °F 20.4 °F 25.0 °F 85% 30.23 in 2.0 mi NNE 9.2 mph - 0.00 in Snow Light Snow
6:27 PM 28.9 °F 21.1 °F 25.0 °F 85% 30.23 in 3.0 mi NNE 8.1 mph - 0.00 in Snow Light Snow
6:53 PM 28.9 °F 19.8 °F 25.0 °F 85% 30.28 in 4.0 mi North 10.4 mph - 0.00 in Snow Light Snow
7:53 PM 28.9 °F 19.8 °F 25.0 °F 85% 30.28 in 5.0 mi NNE 10.4 mph - 0.00 in Snow Light Snow
8:15 PM 28.0 °F 18.1 °F 24.1 °F 85% 30.25 in 5.0 mi NNE 11.5 mph - 0.00 in   Overcast
8:53 PM 28.0 °F 19.3 °F 24.1 °F 85% 30.30 in 5.0 mi NNE 9.2 mph - 0.00 in   Overcast
9:53 PM 27.0 °F 19.5 °F 24.1 °F 89% 30.30 in 5.0 mi NNE 6.9 mph - N/A   Mostly Cloudy
10:53 PM 28.0 °F 20.8 °F 24.1 °F 85% 30.30 in 4.0 mi NNE 6.9 mph - N/A   Overcast
11:53 PM 28.0 °F 20.0 °F 24.1 °F 85% 30.29 in 4.0 mi NE 8.1 mph - N/A   Overcast